STARLINK-3783, 52282

Orbit data source: Space-Track

STARLINK-3783, 52282 is a payload satellite owned by SpaceX/Seattle (US) in LEO that was launched on Thu, 21 Apr 2022 UTC via an FALCON 9 launch vehicle from the Air Force Eastern Test Range (AFETR). Payload-class satellites include a variety of spacecraft equipped with specific instruments for various scientific and technological missions. These include communications satellites like Starlink; space stations such as the ISS; scientific satellites like the Hubble; Earth observation satellites from companies like Planet Labs, Umbra, and HawkEye 360; GPS; miniature CubeSats for education and research; and military/defense satellites.

Loading next visibility...
Identifier
52282, 2022-041X
Orbit
LEO
Country
Flag of USUS
Related business
Manufacturer
SpaceX/Seattle
Mission
Operational Commercial Communications
Bus & Motor
STARLINK, Unknown motor
Mass
297 kg wet, ~275 kg dry
Launch date (UTC)
2022-04-21 (4 years ago)
Launch vehicle
FALCON 9
Launch site
Air Force Eastern Test Range (AFETR)
Object type
Payload
Rocket body
Debris
Shape & HBR
Box + 1 Pan, 10.1 m
Radar Cross Section
11.087 m², Large (>1 m²)

Expand to show TLE details & history
Last TLE update: 16 hours ago

TLE from 16 hours ago
0 STARLINK-3783
1 52282U 22041X   26206.35576181  .00000024  00000-0  12043-4 0  9990
2 52282  53.1590 198.6164 0001085  61.2224 298.8888 15.33547787235315
Epoch: 2026-07-25T08:32Z
TLE epoch observation values (Epoch: 2026-07-25T08:32:17.820Z)
Latitude
0.00006°
Longitude
127.47297°
Altitude
465.78 km
Speed
7.635 km/s
True Right ascension
13h 14m 27s
True Declination
0° 00' 00"
Sunlit
Object was in daylight at epoch
Visualization orbit readout
Latitude
Unknown
Longitude
Unknown
Altitude
Unknown
Speed
Unknown
Apparent Right ascension
Unknown
Apparent Declination
Unknown
Sunlit
N/A
Visualization observer readout
Local Sidereal Time
13:49:49
Azimuth
Unknown
Elevation
Unknown
Doppler factor
Unknown
Orbital elements
Apogee altitude
466.237 km
Perigee altitude
464.752 km
Semi-major axis
6,843.631 km
Eccentricity
0.00011
Inclination
53.159°
RAAN
198.6164°
Arg. of periapsis
61.2224°
True anomaly
298.87791°
Mean anomaly
298.8888°
Eccentric anomaly
298.88336°
Mean motion
3.83366 °/min
Orbital period
93.91 mins
BSTAR
0.000012043
Loading maneuver chart data...
Computing Atmospheric mass density...
Loading historical data...
Loading historical data...
Loading historical data...
Loading historical data...
Loading historical data...
Loading historical data...
Loading historical data...

Documentation

Showing up to 5 results
|